Regional Weather Roundup
Issued by NWS

Home | Current Version | Previous Version | Graphics & Text | Print | Product List | Glossary On
Versions: 1 2 3 4 5 6 7 8 9 10 11 12 13 14 15 16 17 18 19 20 21 22 23 24 25 26 27 28 29 30 31 32 33 34 35 36 37 38 39 40 41 42 43 44 45 46 47 48 49 50
345
ASUS43 KBIS 280510
RWRND

NORTH DAKOTA REGIONAL WEATHER ROUNDUP
NATIONAL WEATHER SERVICE BISMARCK ND
1200 AM CDT TUE MAR 28 2017

NOTE: "FAIR" INDICATES FEW OR NO CLOUDS BELOW 12,000 FEET WITH NO
SIGNIFICANT WEATHER AND/OR OBSTRUCTIONS TO VISIBILITY.


NDZ001>003-009>011-017-280600-
NORTHWEST NORTH DAKOTA

CITY           SKY/WX    TMP DP  RH WIND       PRES   REMARKS
WILLISTON      LGT RAIN  40  37  89 NE10      30.01S
MINOT          FOG       37  36  96 NE6       30.04S VSB 1/4
$$

NDZ018>021-031>035-040>046-280600-
SOUTHWEST NORTH DAKOTA

CITY           SKY/WX    TMP DP  RH WIND       PRES   REMARKS
BISMARCK       FAIR      40  34  79 NE7       30.01R
DICKINSON      FAIR      38  28  67 E5        29.95R
GARRISON         N/A     36  36 100 E12       30.00S
HETTINGER ARPT CLEAR     41  31  67 SE5       29.99R
$$

NDZ004>008-012>016-024-026-027-054-280600-
NORTHEAST NORTH DAKOTA

CITY           SKY/WX    TMP DP  RH WIND       PRES   REMARKS
GRAND FORKS    LGT RAIN  35  35 100 NW8       30.09R FOG
GRND FRKS AFB  MOCLDY    36  36 100 N6        30.09S FOG
DEVILS LAKE    CLOUDY    34  33  96 NE6       30.08
$$

NDZ022-023-025-028>030-036>039-047>053-280600-
SOUTHEAST NORTH DAKOTA

CITY           SKY/WX    TMP DP  RH WIND       PRES   REMARKS
FARGO          FOG       38  38 100 N9        30.06R VSB 1/4
JAMESTOWN      FAIR      35  34  96 NE8       30.03R FOG
$$





USA.gov is the U.S. government's official web portal to all federal, state and local government web resources and services.